Weather History for KCKB - August, 2014

Change the Weather History Date:

Saturday, August 23, 2014

  Actual Average Record
Temperature  
Mean Temperature 77 °F -  
Max Temperature 84 °F 82 °F 97 °F (1983)
Min Temperature 68 °F 58 °F 48 °F (1956)
Cooling Degree Days 12    
Growing Degree Days 27 (Base 50)    
Moisture  
Dew Point 69 °F    
Average Humidity 80    
Maximum Humidity 93    
Minimum Humidity 56    
Precipitation  
Precipitation 0.00 in - - ()
Sea Level Pressure  
Sea Level Pressure 29.98 in    
Wind  
Wind Speed 4 mph (WSW)    
Max Wind Speed 9 mph    
Max Gust Speed -    
Visibility 7 miles    
Events      
Averages and records for this station are not official NWS values.
T = Trace of Precipitation, MM = Missing Value Source: NWS Daily Summary

Daily Weather History Graph

Daily Weather History Graph

Search for Another Location

Airport or City:

Trip Planner

Search our weather history database for the weather conditions in past years. The results will help you decide how hot, cold, wet, or windy it might be!

Date:

Astronomy

Aug. 23, 2014 Rise Set
Actual Time 6:41 AM EDT 8:05 PM EDT
Civil Twilight 6:13 AM EDT 8:33 PM EDT
Nautical Twilight 5:39 AM EDT 9:06 PM EDT
Astronomical Twilight 5:03 AM EDT 9:42 PM EDT
Moon 4:56 AM EDT (8/23) 6:48 PM EDT (8/23)
Length of Visible Light 14h 20m
Length of Day
13h 24m
Waning Crescent, 3% of the Moon is Illuminated
Aug 23
Waning Crescent
Aug 25
New
Sep 2
First Quarter
Sep 8
Full
Sep 15
Last Quarter

Hourly Weather History & Observations

Time (EDT) Temp. Heat Index Dew Point Humidity Pressure Visibility Wind Dir Wind Speed Gust Speed Precip Events Conditions
12:46 AM 72.0 °F - 69.1 °F 91% 30.00 in 10.0 mi SSW 3.5 mph - N/A   Mostly Cloudy
12:53 AM 72.0 °F - 69.1 °F 91% 29.96 in 10.0 mi South 3.5 mph - N/A   Mostly Cloudy
1:34 AM 73.0 °F - 70.0 °F 90% 29.99 in 9.0 mi Calm Calm - N/A   Overcast
1:53 AM 72.0 °F - 70.0 °F 93% 29.95 in 9.0 mi Calm Calm - N/A   Overcast
2:53 AM 72.0 °F - 70.0 °F 93% 29.94 in 6.0 mi SSW 4.6 mph - N/A   Overcast
3:53 AM 73.0 °F - 70.0 °F 90% 29.93 in 6.0 mi SSW 5.8 mph - N/A   Overcast
4:01 AM 73.0 °F - 70.0 °F 90% 29.97 in 6.0 mi SSW 4.6 mph - N/A   Overcast
5:53 AM 72.0 °F - 70.0 °F 93% 29.94 in 5.0 mi SW 4.6 mph - N/A   Overcast
7:11 AM 72.0 °F - 70.0 °F 93% 30.01 in 3.0 mi West 3.5 mph - N/A   Overcast
7:53 AM 72.0 °F - 70.0 °F 93% 29.97 in 3.0 mi SW 4.6 mph - N/A   Overcast
8:53 AM 73.9 °F - 71.1 °F 91% 29.97 in 4.0 mi SW 4.6 mph - N/A   Overcast
9:21 AM 73.9 °F - 70.0 °F 87% 30.01 in 5.0 mi West 3.5 mph - N/A   Overcast
9:32 AM 75.0 °F - 70.0 °F 84% 30.01 in 5.0 mi West 3.5 mph - N/A   Haze
9:53 AM 75.9 °F - 70.0 °F 82% 29.96 in 5.0 mi WSW 3.5 mph - N/A   Haze
10:09 AM 75.9 °F - 70.0 °F 82% 30.01 in 5.0 mi WNW 4.6 mph - N/A   Haze
10:41 AM 78.1 °F - 70.0 °F 76% 30.01 in 6.0 mi Calm Calm - N/A   Haze
10:53 AM 77.0 °F - 70.0 °F 79% 29.97 in 8.0 mi Calm Calm - N/A   Mostly Cloudy
11:13 AM 77.0 °F - 69.1 °F 76% 30.01 in 4.0 mi West 3.5 mph - N/A   Haze
11:35 AM 78.1 °F - 70.0 °F 76% 30.02 in 4.0 mi Calm Calm - N/A   Haze
11:53 AM 79.0 °F - 70.0 °F 74% 29.97 in 4.0 mi South 4.6 mph - N/A   Haze
12:53 PM 80.1 °F 83.2 °F 70.0 °F 71% 29.97 in 7.0 mi WNW 3.5 mph - N/A   Overcast
1:28 PM 82.0 °F 85.5 °F 69.1 °F 65% 30.01 in 10.0 mi Variable 4.6 mph - N/A   Mostly Cloudy
1:53 PM 82.0 °F 84.9 °F 68.0 °F 62% 29.97 in 10.0 mi Variable 6.9 mph - N/A   Mostly Cloudy
2:03 PM 84.0 °F 87.0 °F 68.0 °F 58% 30.02 in 10.0 mi NW 6.9 mph - N/A   Mostly Cloudy
2:53 PM 82.0 °F 84.9 °F 68.0 °F 62% 29.96 in 10.0 mi North 9.2 mph - N/A   Partly Cloudy
3:53 PM 84.0 °F 86.5 °F 66.9 °F 56% 29.94 in 10.0 mi NNW 8.1 mph - N/A   Mostly Cloudy
5:53 PM 79.0 °F - 66.9 °F 66% 29.94 in 10.0 mi NNE 6.9 mph - N/A   Mostly Cloudy
6:53 PM 79.0 °F - 66.9 °F 66% 29.93 in 10.0 mi North 6.9 mph - N/A   Partly Cloudy
7:53 PM 75.9 °F - 66.9 °F 74% 29.94 in 10.0 mi NE 4.6 mph - N/A   Mostly Cloudy
8:53 PM 73.0 °F - 66.0 °F 79% 29.96 in 10.0 mi East 9.2 mph - N/A   Clear
9:53 PM 70.0 °F - 64.0 °F 81% 29.99 in 10.0 mi East 9.2 mph - N/A   Partly Cloudy
11:53 PM 68.0 °F - 62.1 °F 81% 30.01 in 10.0 mi Calm Calm - N/A   Clear